Wind_Speed
38 32 24 21 18 14 11 9 6 3 2 4 10 17 22 25 28 30 34 40 46 52 61 70 74 78 85 92 99 100 95 93 96 102 102 106 105 108 98 99 98 96 72 73 81 83 79
34 30 23 20 17 14 12 8 7 5 1 3 6 9 12 15 18 21 26 30 35 41 48 55 62 70 80 86 94 105 104 103 100 102 110 108 109 110 111 105 110 94 85 86 82 84 85
33 30 23 20 19 18 18 15 13 12 9 7 7 10 12 14 17 20 23 27 32 36 40 44 50 57 66 76 86 96 105 111 109 109 113 115 109 118 111 109 108 104 97 90 86 81 80
32 30 24 22 20 20 20 19 19 18 16 15 15 16 17 19 21 25 28 32 36 39 42 47 51 59 64 71 78 86 96 103 109 115 115 118 122 118 115 109 109 110 107 102 86 83 76
31 30 26 23 22 21 21 21 21 22 20 18 17 17 18 20 23 26 29 34 36 40 43 46 47 52 60 68 76 86 88 94 100 107 117 120 126 124 120 117 115 115 110 105 88 82 81
31 31 27 25 23 23 23 23 23 24 21 19 18 19 21 24 27 29 33 36 40 42 45 47 47 46 56 63 77 86 89 85 88 96 106 115 126 125 124 123 119 109 107 108 104 100 97
32 30 27 26 23 24 24 24 25 23 21 21 21 22 22 25 25 27 32 37 41 45 49 50 50 53 57 61 72 74 84 83 77 83 95 107 120 122 117 120 118 116 114 110 109 111 108
32 30 28 27 25 24 24 23 25 22 23 23 23 22 23 24 26 29 33 39 44 49 54 56 55 54 56 54 60 66 76 81 77 79 89 100 105 106 114 118 117 122 120 116 110 111 117
32 30 29 29 27 26 24 24 25 24 24 25 24 22 23 24 26 30 36 41 47 52 55 57 58 54 55 48 50 58 63 68 73 76 83 89 90 99 107 114 117 119 123 117 117 120 117
32 30 29 30 28 28 26 26 27 26 26 26 26 25 24 25 28 32 37 43 48 52 56 60 61 59 57 50 44 47 50 56 62 70 73 76 85 96 101 108 116 119 119 122 119 121 119
33 31 29 30 28 29 28 30 30 28 27 28 27 26 26 28 30 35 40 45 50 53 59 59 62 62 60 51 41 35 39 44 51 61 67 72 81 91 98 103 113 113 123 126 126 124 124
36 33 31 30 29 30 31 32 32 31 29 30 30 29 29 31 35 38 42 46 52 54 60 63 65 64 62 56 44 31 29 35 42 50 57 63 72 83 90 98 107 114 125 130 132 132 128
39 37 34 33 32 32 33 35 34 33 32 32 32 32 32 33 37 40 44 48 51 55 58 60 64 65 63 56 47 36 28 27 34 41 50 57 70 78 87 98 105 112 122 126 131 133 127
40 40 38 36 35 34 35 36 36 35 35 34 34 34 35 35 37 41 43 47 51 55 58 59 62 66 65 58 50 41 28 22 27 33 41 51 62 75 85 96 102 107 114 121 124 127 124
40 43 41 39 38 37 37 38 38 38 37 36 36 35 37 37 38 42 45 47 51 54 56 58 59 62 66 63 55 46 36 27 20 25 32 42 53 64 77 85 98 104 108 113 117 122 122
42 44 45 43 41 40 39 39 39 40 38 37 37 37 38 38 39 42 46 47 50 54 55 57 55 58 61 63 58 49 39 33 21 18 25 36 49 56 67 79 92 102 105 107 110 118 117
47 45 48 46 44 43 42 41 40 40 39 39 39 39 40 39 40 42 46 47 48 52 54 56 55 56 59 61 59 55 46 35 26 17 18 27 38 48 57 72 85 97 101 104 107 110 112
53 49 49 50 49 48 46 44 43 41 41 41 40 40 41 42 42 42 46 48 48 50 53 53 54 53 56 57 59 58 51 40 29 23 15 21 30 38 52 63 75 87 97 101 104 106 106
51 53 50 53 53 51 50 48 46 44 42 43 42 42 42 44 45 43 45 47 47 48 51 51 52 53 53 55 56 56 54 46 37 26 20 15 22 28 39 52 61 73 85 95 100 102 105
49 57 54 52 56 56 54 51 48 46 45 45 43 43 43 43 46 46 45 44 45 47 48 50 50 53 53 53 53 52 52 50 42 34 22 18 18 22 31 41 52 60 71 84 92 99 101
53 52 61 57 54 57 57 55 52 49 47 46 46 45 45 43 48 47 45 44 44 46 47 48 48 50 53 52 52 48 48 48 45 39 31 20 19 19 23 31 40 50 61 69 79 89 95
59 55 55 63 56 56 59 58 55 53 51 49 48 46 47 46 47 46 45 45 44 44 45 47 47 48 51 50 48 45 44 44 43 41 36 27 18 16 22 25 31 43 54 63 71 82 90
63 58 56 58 63 58 58 58 58 56 54 53 49 48 50 43 43 45 46 46 44 45 43 44 46 47 47 50 47 45 42 43 43 45 42 35 27 17 16 23 28 35 45 53 63 72 82
67 61 58 58 61 63 58 57 55 55 54 54 47 46 46 41 45 46 44 45 44 46 45 43 46 47 48 49 45 43 45 45 42 45 45 42 35 29 23 20 24 29 40 46 55 66 73
71 66 60 59 59 63 61 57 57 54 53 52 47 45 47 45 47 46 45 44 44 44 45 43 44 45 47 45 46 49 52 51 46 49 48 48 42 35 31 26 20 24 30 39 49 55 62
72 69 65 61 60 59 63 58 55 54 52 51 47 45 45 47 46 44 44 43 43 44 44 44 44 45 48 45 46 47 50 52 48 53 52 51 47 41 33 31 24 21 26 33 40 46 53
76 72 68 64 61 60 61 63 58 53 50 48 47 45 46 48 44 44 44 43 42 42 43 43 44 44 49 46 48 49 52 55 52 54 57 55 53 48 39 32 31 25 27 28 34 40 44
80 75 72 68 65 61 60 61 63 61 55 53 51 47 47 50 48 45 45 44 43 41 43 43 45 44 48 48 48 49 53 55 57 56 62 58 56 53 46 37 33 29 30 27 29 36 39
84 77 74 70 66 64 60 60 61 62 62 59 56 52 51 53 52 48 47 45 44 42 43 44 45 44 48 50 49 50 53 58 58 59 64 66 62 57 51 47 39 33 27 30 28 32 36
Wind_Direction
291 278 280 280 300 316 330 336 354 12 90 188 209 222 233 241 246 248 248 248 248 248 248 246 245 244 243 241 237 233 233 235 234 230 231 229 232 230 230 226 228 232 229 229 232 234 234
289 268 271 273 287 297 309 324 338 350 358 193 208 217 228 236 240 243 246 249 251 252 252 251 251 250 249 247 244 241 234 233 233 233 231 232 230 233 229 225 227 229 229 224 227 232 231
285 261 262 270 275 281 286 291 295 301 293 276 256 248 247 247 249 252 255 256 257 257 258 258 256 255 254 252 250 245 242 235 234 235 233 230 231 232 230 231 231 230 225 225 225 226 232
276 255 257 265 269 271 276 283 283 281 276 272 271 264 258 260 264 265 267 266 266 269 269 267 267 263 262 259 255 251 247 242 238 235 236 234 231 231 230 233 233 230 227 225 224 228 229
266 251 253 262 266 265 269 275 278 280 278 278 275 273 274 276 276 276 277 278 278 279 279 275 273 266 262 261 259 258 251 245 242 238 237 237 236 233 233 231 231 233 230 222 218 225 230
259 249 252 258 265 263 267 274 276 279 275 272 276 282 284 283 284 286 286 288 288 288 289 289 288 280 283 275 262 258 259 252 244 242 239 237 239 235 232 233 234 233 234 228 222 229 227
255 248 251 258 261 264 266 268 272 269 264 269 275 279 281 282 287 291 296 297 298 299 298 297 297 302 300 281 262 263 262 258 250 241 239 236 238 239 236 233 230 233 232 232 227 224 229
252 248 249 257 262 263 263 265 267 257 261 266 270 278 286 288 293 299 304 308 311 310 306 304 307 313 309 292 281 267 260 262 255 245 237 236 237 237 237 236 232 232 233 231 228 232 231
251 249 248 255 260 262 263 265 258 255 261 267 270 276 284 293 300 307 311 314 315 316 313 311 315 318 316 298 290 276 265 257 254 248 242 236 234 231 232 233 234 232 233 230 228 230 233
249 248 249 254 258 260 262 259 254 255 261 266 271 277 287 297 305 312 315 320 321 321 320 317 319 327 326 318 302 283 270 258 251 246 242 235 231 230 228 229 231 231 230 228 229 228 228
248 247 246 251 254 255 256 254 252 254 260 264 268 277 284 295 305 311 317 321 324 325 326 324 324 331 335 329 321 297 275 260 249 244 238 234 229 227 228 225 227 228 228 227 227 229 229
249 246 246 248 249 252 253 253 251 253 258 263 268 276 285 294 303 311 318 323 327 327 333 331 330 333 341 339 331 311 290 269 253 242 239 233 229 228 226 225 227 225 226 226 226 228 231
251 248 245 246 248 250 251 250 251 254 259 264 270 278 285 293 302 309 318 324 328 330 334 334 334 336 343 344 341 334 312 281 262 246 236 231 225 225 223 224 223 224 226 227 228 229 231
255 250 247 247 247 246 251 251 251 256 262 267 274 280 286 294 302 309 316 323 327 332 333 336 337 338 344 348 349 343 330 300 273 254 239 231 226 223 222 220 223 225 226 228 228 229 231
256 251 248 247 245 245 248 251 253 257 261 267 273 279 285 294 303 309 315 323 327 331 334 337 338 341 343 349 353 352 345 333 294 265 245 232 229 227 224 221 220 223 226 228 228 231 230
254 250 249 246 244 244 248 252 256 258 262 268 273 280 286 294 303 309 314 321 326 329 333 337 339 342 344 347 352 355 355 344 325 281 252 236 229 225 223 220 220 222 224 226 228 230 230
252 250 247 246 243 244 248 251 255 259 263 268 274 279 285 292 300 306 312 318 323 327 332 336 339 344 347 347 350 356 357 356 343 315 267 244 235 228 224 223 223 222 223 225 225 230 230
247 251 247 245 243 245 247 251 254 257 262 267 272 277 284 291 296 304 309 314 320 324 330 333 338 343 347 347 351 353 358 357 357 341 304 260 242 231 225 226 226 226 224 226 227 228 229
255 248 248 245 244 246 247 249 252 257 260 266 271 277 283 289 295 301 305 310 316 322 327 330 335 341 347 351 351 352 354 359 356 357 336 293 261 241 234 231 229 230 230 227 228 227 229
255 248 248 247 246 246 248 251 254 256 260 264 269 275 281 287 293 299 303 308 313 319 324 327 333 339 345 349 352 352 354 356 356 352 352 326 286 258 241 233 231 231 233 231 230 230 231
251 252 245 248 247 248 250 251 253 256 260 265 269 274 280 287 291 296 300 306 310 316 321 323 329 335 341 349 350 353 354 354 356 353 349 341 317 290 263 248 234 232 231 233 231 233 231
249 248 249 244 248 249 247 250 253 257 259 263 267 274 280 286 288 292 297 302 307 312 318 320 325 332 340 344 350 352 359 356 353 355 348 343 332 305 287 263 249 239 231 230 231 229 228
244 246 247 247 243 248 249 250 252 254 258 264 269 274 278 282 287 291 295 299 304 308 314 316 322 328 337 343 349 353 359 0 355 354 352 345 333 313 288 270 259 248 242 235 230 234 232
240 241 243 246 245 243 249 249 250 254 258 261 266 271 276 281 285 288 292 296 301 305 309 314 318 325 334 339 347 354 356 2 1 354 352 350 340 329 310 285 270 251 250 243 239 233 231
236 237 239 242 246 243 244 249 250 251 255 259 263 268 273 275 277 285 290 293 297 301 305 310 314 320 328 337 343 346 349 356 1 356 352 349 347 337 325 308 288 277 262 248 248 240 236
233 234 236 239 241 245 242 244 249 252 251 255 257 261 266 270 275 282 287 290 294 297 301 305 310 316 323 332 336 342 345 350 360 359 353 350 345 342 334 319 301 282 262 261 252 248 243
230 232 233 236 239 242 244 242 245 247 251 254 257 258 263 268 272 278 283 287 290 294 298 302 307 312 318 328 332 338 341 343 352 356 351 350 347 344 342 331 313 296 283 267 261 255 249
226 229 230 233 237 239 243 243 243 245 248 252 256 259 262 267 271 276 279 283 288 292 295 298 301 307 313 321 327 331 337 337 345 352 350 347 347 342 342 334 317 308 295 281 268 261 255
223 226 228 230 235 237 240 244 245 245 248 250 253 257 261 265 271 275 276 280 284 289 291 294 297 303 309 315 321 327 331 332 340 347 347 345 345 342 337 335 323 311 301 289 273 265 259
Height
10556 10555 10553 10552 10550 10546 10543 10540 10536 10534 10532 10533 10537 10541 10545 10549 10552 10557 10560 10563 10565 10568 10571 10574 10577 10582 10583 10586 10585 10593 10601 10607 10614 10620 10627 10634 10642 10645 10666 10675 10667 10682 10717 10719 10725 10728 10737
10549 10548 10547 10546 10545 10544 10543 10540 10539 10537 10535 10536 10538 10540 10543 10546 10548 10551 10553 10555 10557 10558 10559 10562 10565 10566 10565 10565 10568 10569 10579 10584 10589 10594 10603 10611 10621 10623 10635 10648 10648 10684 10695 10695 10704 10715 10723
10542 10542 10541 10540 10541 10540 10540 10538 10538 10537 10536 10536 10537 10538 10540 10542 10544 10546 10547 10548 10549 10549 10552 10553 10552 10550 10548 10545 10544 10545 10550 10561 10567 10574 10578 10585 10594 10596 10622 10630 10644 10658 10671 10679 10688 10703 10715
10535 10535 10535 10535 10536 10536 10535 10535 10535 10535 10534 10534 10534 10536 10537 10538 10539 10540 10540 10540 10540 10541 10540 10539 10538 10532 10529 10526 10523 10522 10525 10532 10545 10546 10554 10558 10567 10578 10598 10615 10622 10631 10647 10659 10691 10695 10708
10527 10528 10528 10529 10530 10531 10531 10531 10530 10530 10530 10530 10530 10531 10531 10532 10532 10532 10532 10531 10531 10529 10527 10524 10521 10515 10513 10505 10500 10493 10496 10504 10514 10526 10531 10532 10537 10559 10573 10587 10599 10610 10631 10649 10676 10682 10692
10520 10520 10521 10522 10523 10524 10525 10525 10525 10525 10525 10525 10525 10525 10526 10525 10525 10525 10524 10522 10519 10517 10511 10507 10500 10498 10490 10479 10472 10469 10468 10478 10488 10497 10504 10510 10506 10524 10550 10563 10580 10607 10621 10639 10662 10659 10655
10512 10513 10514 10515 10516 10517 10518 10519 10519 10519 10519 10520 10520 10520 10520 10519 10518 10517 10515 10512 10508 10502 10496 10491 10483 10475 10463 10449 10447 10446 10441 10447 10460 10470 10474 10475 10473 10499 10537 10546 10570 10577 10590 10611 10637 10632 10630
10504 10506 10507 10508 10509 10510 10511 10512 10513 10513 10514 10514 10515 10514 10514 10513 10511 10509 10506 10500 10494 10487 10479 10472 10465 10454 10442 10433 10419 10424 10418 10419 10428 10434 10437 10440 10462 10494 10506 10521 10540 10549 10564 10587 10603 10605 10608
10497 10499 10500 10501 10502 10503 10504 10505 10507 10508 10508 10509 10509 10508 10508 10506 10504 10500 10495 10490 10483 10475 10465 10456 10446 10436 10420 10410 10401 10392 10392 10393 10398 10403 10406 10423 10453 10462 10474 10488 10506 10524 10539 10562 10575 10578 10586
10489 10491 10492 10494 10495 10496 10497 10499 10500 10502 10502 10503 10502 10501 10500 10499 10496 10492 10487 10480 10473 10464 10454 10442 10430 10420 10407 10392 10382 10372 10369 10368 10373 10375 10388 10406 10423 10431 10447 10462 10476 10494 10522 10536 10546 10550 10564
10481 10482 10484 10486 10488 10489 10491 10492 10494 10495 10495 10496 10495 10494 10492 10490 10488 10484 10478 10471 10464 10455 10443 10430 10417 10404 10390 10375 10367 10358 10350 10348 10351 10355 10367 10378 10393 10405 10420 10440 10449 10480 10487 10506 10515 10520 10534
10473 10474 10476 10478 10480 10482 10484 10485 10487 10487 10488 10488 10488 10487 10485 10482 10480 10476 10469 10462 10454 10445 10433 10418 10406 10395 10381 10365 10353 10344 10337 10333 10333 10339 10348 10364 10377 10388 10408 10421 10432 10450 10453 10463 10483 10491 10506
10464 10465 10467 10469 10471 10474 10476 10478 10479 10480 10480 10480 10479 10479 10477 10474 10471 10467 10461 10453 10446 10436 10428 10414 10400 10387 10374 10360 10346 10336 10327 10322 10320 10325 10332 10342 10351 10364 10379 10396 10406 10420 10427 10444 10460 10472 10496
10454 10456 10458 10460 10462 10464 10467 10469 10470 10471 10471 10471 10470 10470 10468 10466 10463 10458 10454 10448 10439 10431 10420 10409 10394 10379 10367 10356 10341 10329 10321 10315 10311 10313 10319 10327 10335 10343 10353 10370 10387 10402 10413 10426 10444 10460 10493
10444 10446 10447 10449 10451 10454 10456 10459 10460 10462 10462 10462 10461 10461 10459 10458 10455 10450 10446 10440 10431 10424 10415 10404 10391 10377 10363 10348 10337 10326 10317 10311 10306 10305 10310 10318 10324 10334 10342 10360 10370 10383 10398 10410 10428 10442 10463
10433 10434 10437 10438 10441 10443 10446 10448 10450 10452 10453 10453 10452 10452 10451 10449 10446 10442 10438 10433 10425 10418 10410 10401 10390 10378 10363 10349 10337 10327 10318 10308 10303 10300 10302 10305 10310 10320 10334 10341 10353 10362 10378 10394 10409 10416 10442
10422 10422 10424 10427 10430 10432 10435 10438 10440 10441 10443 10443 10443 10442 10441 10440 10438 10435 10430 10425 10419 10412 10405 10397 10387 10374 10361 10348 10336 10325 10316 10308 10300 10297 10297 10297 10302 10313 10321 10327 10335 10348 10360 10374 10389 10400 10421
10409 10411 10412 10414 10417 10420 10424 10427 10429 10431 10433 10433 10433 10433 10431 10430 10430 10427 10423 10418 10413 10407 10400 10392 10383 10374 10362 10349 10336 10326 10316 10308 10302 10297 10294 10292 10295 10304 10310 10315 10324 10334 10347 10360 10371 10383 10399
10394 10397 10399 10401 10404 10408 10411 10415 10418 10421 10423 10423 10424 10423 10422 10421 10420 10419 10416 10411 10406 10401 10395 10388 10380 10371 10361 10349 10337 10327 10316 10309 10301 10297 10293 10291 10291 10298 10304 10310 10318 10327 10335 10347 10358 10373 10381
10377 10382 10386 10388 10391 10394 10398 10402 10406 10409 10412 10413 10415 10413 10414 10412 10411 10409 10408 10405 10400 10395 10389 10382 10375 10367 10358 10349 10340 10328 10318 10308 10302 10296 10293 10290 10289 10291 10292 10296 10304 10316 10323 10333 10347 10358 10372
10361 10365 10370 10374 10377 10380 10384 10389 10393 10397 10400 10402 10404 10404 10403 10404 10401 10399 10398 10395 10393 10387 10382 10376 10371 10365 10357 10348 10337 10330 10319 10309 10303 10297 10292 10289 10286 10286 10287 10289 10294 10303 10310 10317 10330 10342 10359
10344 10348 10353 10358 10362 10366 10370 10375 10380 10384 10388 10390 10393 10394 10394 10395 10393 10391 10388 10386 10384 10382 10376 10370 10365 10361 10354 10347 10339 10329 10321 10312 10303 10298 10290 10287 10285 10283 10279 10282 10283 10285 10291 10299 10305 10312 10326
10324 10331 10336 10341 10347 10352 10357 10361 10367 10371 10375 10377 10381 10383 10383 10386 10383 10381 10379 10377 10375 10373 10371 10365 10360 10356 10351 10342 10335 10326 10320 10313 10302 10293 10288 10283 10280 10279 10277 10274 10273 10276 10276 10280 10289 10296 10302
10304 10312 10319 10325 10330 10337 10343 10347 10352 10357 10363 10364 10371 10372 10372 10374 10372 10372 10371 10368 10365 10363 10361 10358 10353 10348 10344 10338 10330 10324 10317 10311 10302 10293 10285 10280 10275 10271 10269 10267 10267 10266 10263 10265 10269 10272 10283
10282 10292 10301 10308 10314 10321 10327 10333 10339 10344 10349 10352 10359 10361 10360 10362 10363 10363 10361 10359 10357 10354 10351 10350 10347 10342 10339 10333 10325 10317 10310 10303 10297 10290 10281 10273 10269 10264 10259 10257 10259 10257 10257 10255 10251 10258 10267
10261 10272 10282 10291 10298 10305 10311 10318 10325 10331 10335 10339 10345 10348 10349 10348 10353 10353 10352 10351 10348 10346 10344 10341 10338 10334 10332 10328 10322 10316 10308 10301 10296 10288 10280 10274 10265 10259 10255 10248 10246 10244 10240 10241 10242 10247 10249
10240 10252 10263 10273 10281 10289 10295 10302 10310 10317 10322 10327 10330 10336 10337 10336 10342 10341 10342 10341 10339 10338 10336 10333 10329 10326 10323 10321 10315 10308 10302 10294 10289 10284 10274 10266 10258 10251 10246 10241 10235 10234 10232 10232 10230 10231 10235
10218 10232 10244 10255 10264 10273 10280 10287 10294 10302 10309 10314 10318 10324 10325 10324 10329 10331 10331 10330 10328 10328 10327 10325 10322 10319 10314 10312 10309 10303 10296 10288 10282 10277 10268 10259 10253 10244 10238 10233 10227 10225 10220 10221 10219 10217 10219
10197 10211 10225 10236 10247 10257 10265 10272 10279 10286 10294 10301 10305 10311 10313 10312 10316 10319 10320 10319 10318 10318 10317 10315 10313 10311 10306 10303 10300 10296 10289 10280 10275 10269 10261 10250 10244 10236 10230 10223 10216 10213 10212 10207 10206 10203 10203